This demonstration page uses our WeatherBlox Daily Observations layout. Learn more.

Left ArrowRight Arrow

Hourly Observations for February 1, 2016

Temp ( °F °C ) Dew Point ( °F °C ) Humidity (%) Winds ( mph kmh ) Pressure ( in mb ) Visibility ( mi km ) Precip ( " mm )
12:59 am 00:59 Cloudy 58 14.4 43 6.1 58 58 SSW 15 24 29.95 1014 10 16 0.00 0.00
1:59 am 01:59 Mostly Cloudy 57 13.9 43 6.1 60 60 SW 13 20 29.96 1014 10 16 0.00 0.00
2:59 am 02:59 Mostly Cloudy 57 13.9 43 6.1 60 60 SW 9 15 29.96 1015 10 16 0.00 0.00
3:59 am 03:59 Partly Cloudy 55 12.8 43 6.1 64 64 SSW 10 17 29.95 1014 10 16 0.00 0.00
4:59 am 04:59 Mostly Cloudy 55 12.8 43 6.1 64 64 SSW 12 19 29.94 1014 10 16 0.00 0.00
5:59 am 05:59 Mostly Cloudy 55 12.8 43 6.1 64 64 SW 13 20 29.93 1014 10 16 0.00 0.00
6:59 am 06:59 Mostly Cloudy 54 12.2 44 6.7 69 69 SW 12 19 29.95 1014 10 16 0.00 0.00
7:59 am 07:59 Mostly Cloudy 55 12.8 44 6.7 67 67 SW 13 20 29.96 1014 10 16 0.00 0.00
8:59 am 08:59 Mostly Cloudy 58 14.4 46 7.8 65 65 WSW 9 15 29.96 1014 10 16 0.00 0.00
9:59 am 09:59 Mostly Cloudy 61 16.1 48 8.9 63 63 WSW 10 17 29.95 1014 10 16 0.00 0.00
10:59 am 10:59 Mostly Cloudy 63 17.2 49 9.4 60 60 SSW 12 19 29.94 1014 10 16 0.00 0.00
11:59 am 11:59 Mostly Cloudy 66 18.9 50 10 56 56 WSW 12 19 29.92 1013 10 16 0.00 0.00
12:59 pm 12:59 Partly Cloudy 70 21.1 51 10.6 51 51 SW 10 17 29.89 1012 10 16 0.00 0.00
1:59 pm 13:59 Partly Cloudy 72 22.2 51 10.6 48 48 WSW 14 22 29.86 1011 10 16 0.00 0.00
2:59 pm 14:59 Partly Cloudy 73 22.8 51 10.6 46 46 WSW 10 17 29.86 1011 10 16 0.00 0.00
3:59 pm 15:59 Partly Cloudy 72 22.2 52 11.1 50 50 WSW 7 11 29.86 1011 10 16 0.00 0.00
4:59 pm 16:59 Partly Cloudy 70 21.1 51 10.6 51 51 SW 5 7 29.87 1012 10 16 0.00 0.00
5:59 pm 17:59 Mostly Cloudy 66 18.9 51 10.6 59 59 Calm 29.90 1013 10 16 0.00 0.00
6:59 pm 18:59 Mostly Cloudy 62 16.7 36 2.2 38 38 SSW 9 15 29.97 1015 10 16 0.00 0.00
7:59 pm 19:59 Mostly Cloudy 52 11.1 41 5 66 66 NNE 14 22 29.97 1015 10 16 0.00 0.00
8:59 pm 20:59 Mostly Cloudy 52 11.1 42 5.6 69 69 N 12 19 30.01 1016 10 16 0.00 0.00
9:59 pm 21:59 Cloudy with Light Rain 52 11.1 44 6.7 75 75 N 13 20 30.04 1017 8 13 0.00 0.00
10:37 pm 22:37 Cloudy with Light Rain 49 9.4 45 7.2 86 86 NNE 13 20 30.03 1017 8 13 0.00 0.03
10:59 pm 22:59 Cloudy with Mist and Fog 48 8.9 45 7.2 89 89 NNE 14 22 30.04 1017 6 10 0.00 0.03
11:59 pm 23:59 Cloudy with Mist and Fog 47 8.3 44 6.7 90 90 NNE 12 19 30.05 1018 6 10 0.00 0.03

Powered by AerisWeather